| time (UTC) | temp F | wind direction | speed MPH | gust MPH | rain 1hr in | rain 24hr in | rain mn in | humidity % | barometer mb |
| 20260506084012 | 54 | 65 | 7.0 | 14.0 | 0.00 | 0.00 | 0.00 | 61 | 1014.2 |
| 20260506083506 | 54 | 40 | 3.0 | 13.0 | 0.00 | 0.00 | 0.00 | 62 | 1014.1 |
| 20260506083013 | 54 | 55 | 5.0 | 12.0 | 0.00 | 0.00 | 0.00 | 64 | 1014.0 |
| 20260506081505 | 53 | 43 | 5.0 | 9.0 | 0.00 | 0.00 | 0.00 | 66 | 1014.1 |
| 20260506080506 | 52 | 44 | 3.0 | 16.0 | 0.00 | 0.00 | 0.00 | 68 | 1014.1 |
| 20260506073506 | 51 | 29 | 6.0 | 13.0 | 0.00 | 0.00 | 0.00 | 69 | 1014.1 |
| 20260506072506 | 51 | 51 | 6.0 | 12.0 | 0.00 | 0.00 | 0.00 | 70 | 1014.1 |
| 20260506071506 | 51 | 39 | 6.0 | 15.0 | 0.00 | 0.00 | 0.00 | 71 | 1014.1 |
| 20260506071013 | 50 | 40 | 4.0 | 12.0 | 0.00 | 0.00 | 0.00 | 72 | 1014.1 |
| 20260506070506 | 50 | 60 | 4.0 | 16.0 | 0.00 | 0.00 | 0.00 | 72 | 1013.9 |
| 20260506062505 | 48 | 43 | 5.0 | 12.0 | 0.00 | 0.00 | 0.00 | 77 | 1013.9 |
| 20260506062012 | 48 | 64 | 5.0 | 12.0 | 0.00 | 0.00 | 0.00 | 77 | 1014.0 |
| 20260506061505 | 47 | 49 | 4.0 | 10.0 | 0.00 | 0.00 | 0.00 | 78 | 1014.0 |
| 20260506061012 | 47 | 50 | 5.0 | 12.0 | 0.00 | 0.00 | 0.00 | 78 | 1014.0 |
| 20260506060506 | 47 | 48 | 3.0 | 10.0 | 0.00 | 0.00 | 0.00 | 78 | 1014.0 |
| 20260506051012 | 46 | 35 | 6.0 | 12.0 | 0.00 | 0.00 | 0.00 | 78 | 1013.8 |
| 20260506050505 | 46 | 45 | 6.0 | 14.0 | 0.00 | 0.00 | 0.00 | 78 | 1013.8 |
| 20260506045013 | 46 | 43 | 4.0 | 12.0 | 0.00 | 0.00 | 0.00 | 78 | 1013.7 |
| 20260506044012 | 46 | 32 | 5.0 | 12.0 | 0.00 | 0.00 | 0.00 | 78 | 1013.6 |
| 20260506043506 | 46 | 64 | 4.0 | 9.0 | 0.00 | 0.00 | 0.00 | 78 | 1013.6 |
| 20260506043013 | 46 | 49 | 5.0 | 12.0 | 0.00 | 0.00 | 0.00 | 78 | 1013.6 |
| 20260506042505 | 47 | 55 | 3.0 | 12.0 | 0.00 | 0.00 | 0.00 | 78 | 1013.7 |
| 20260506042012 | 47 | 39 | 4.0 | 12.0 | 0.00 | 0.00 | 0.00 | 78 | 1013.7 |
| 20260506041505 | 47 | 47 | 5.0 | 12.0 | 0.00 | 0.00 | 0.00 | 78 | 1013.8 |
| 20260506040505 | 47 | 25 | 3.0 | 7.0 | 0.00 | 0.00 | 0.00 | 78 | 1013.6 |
| 20260506040005 | 47 | 35 | 5.0 | 12.0 | 0.00 | 0.00 | 0.00 | 78 | 1013.6 |
| 20260506035505 | 47 | 44 | 2.0 | 9.0 | 0.00 | 0.00 | 0.00 | 78 | 1013.6 |
| 20260506035013 | 47 | 22 | 4.0 | 8.0 | 0.00 | 0.00 | 0.00 | 78 | 1013.6 |
| 20260506034505 | 47 | 46 | 3.0 | 9.0 | 0.00 | 0.00 | 0.00 | 78 | 1013.7 |
| 20260506034012 | 47 | 45 | 2.0 | 9.0 | 0.00 | 0.00 | 0.00 | 78 | 1013.6 |
| 20260506032506 | 48 | 47 | 5.0 | 12.0 | 0.00 | 0.00 | 0.00 | 78 | 1013.7 |
| 20260506032012 | 48 | 38 | 6.0 | 12.0 | 0.00 | 0.00 | 0.00 | 77 | 1013.6 |
| 20260506031505 | 48 | 40 | 4.0 | 10.0 | 0.00 | 0.00 | 0.00 | 77 | 1013.7 |
| 20260506031012 | 48 | 37 | 3.0 | 9.0 | 0.00 | 0.00 | 0.00 | 77 | 1013.7 |
| 20260506030505 | 48 | 31 | 2.0 | 7.0 | 0.00 | 0.00 | 0.00 | 76 | 1013.7 |
| 20260506030005 | 48 | 48 | 5.0 | 12.0 | 0.00 | 0.00 | 0.00 | 76 | 1013.6 |
| 20260506025012 | 48 | 42 | 5.0 | 10.0 | 0.00 | 0.00 | 0.00 | 76 | 1013.7 |
| 20260506024505 | 48 | 48 | 3.0 | 9.0 | 0.00 | 0.00 | 0.00 | 76 | 1013.7 |
| 20260506024012 | 48 | 42 | 5.0 | 10.0 | 0.00 | 0.00 | 0.00 | 76 | 1013.8 |
| 20260506023506 | 48 | 63 | 3.0 | 6.0 | 0.00 | 0.00 | 0.00 | 76 | 1013.8 |
| 20260506023013 | 49 | 47 | 3.0 | 7.0 | 0.00 | 0.00 | 0.00 | 76 | 1013.9 |
| 20260506022505 | 49 | 40 | 3.0 | 9.0 | 0.00 | 0.00 | 0.00 | 76 | 1013.9 |
| 20260506022012 | 49 | 47 | 3.0 | 9.0 | 0.00 | 0.00 | 0.00 | 76 | 1014.0 |
| 20260506021505 | 49 | 54 | 2.0 | 9.0 | 0.00 | 0.00 | 0.00 | 76 | 1014.0 |
| 20260506021012 | 49 | 56 | 3.0 | 9.0 | 0.00 | 0.00 | 0.00 | 76 | 1014.0 |
| 20260506020005 | 49 | 70 | 3.0 | 10.0 | 0.00 | 0.00 | 0.00 | 76 | 1014.0 |
| 20260506015504 | 49 | 65 | 3.0 | 8.0 | 0.00 | 0.00 | 0.00 | 77 | 1014.0 |
| 20260506015012 | 49 | 61 | 2.0 | 9.0 | 0.00 | 0.00 | 0.00 | 77 | 1014.1 |
| 20260506014505 | 49 | 55 | 3.0 | 10.0 | 0.00 | 0.00 | 0.00 | 77 | 1014.2 |
| 20260506014012 | 50 | 37 | 2.0 | 12.0 | 0.00 | 0.00 | 0.00 | 78 | 1014.1 |
| 20260506012505 | 50 | 47 | 3.0 | 10.0 | 0.00 | 0.00 | 0.00 | 78 | 1014.2 |
| 20260506012012 | 50 | 53 | 4.0 | 12.0 | 0.00 | 0.00 | 0.00 | 78 | 1014.2 |
| 20260506011505 | 50 | 60 | 2.0 | 5.0 | 0.00 | 0.00 | 0.00 | 78 | 1014.2 |
| 20260506011012 | 50 | 46 | 3.0 | 8.0 | 0.00 | 0.00 | 0.00 | 78 | 1014.2 |
| 20260506010506 | 50 | 64 | 2.0 | 5.0 | 0.00 | 0.00 | 0.00 | 78 | 1014.1 |
| 20260506010005 | 50 | 60 | 2.0 | 9.0 | 0.00 | 0.00 | 0.00 | 78 | 1014.1 |
| 20260506005505 | 50 | 54 | 3.0 | 10.0 | 0.00 | 0.00 | 0.00 | 77 | 1014.1 |
| 20260506005012 | 50 | 54 | 2.0 | 3.0 | 0.00 | 0.00 | 0.00 | 77 | 1014.1 |
| 20260506004012 | 50 | 67 | 2.0 | 5.0 | 0.00 | 0.00 | 0.00 | 77 | 1014.2 |
| 20260506003505 | 50 | 58 | 2.0 | 5.0 | 0.00 | 0.00 | 0.00 | 76 | 1014.1 |
| 20260506002505 | 50 | 64 | 4.0 | 9.0 | 0.00 | 0.00 | 0.00 | 75 | 1014.3 |
| 20260506001505 | 51 | 66 | 2.0 | 6.0 | 0.00 | 0.00 | 0.00 | 75 | 1014.3 |
| 20260506001012 | 51 | 67 | 3.0 | 18.0 | 0.00 | 0.00 | 0.00 | 75 | 1014.2 |
| 20260506000505 | 51 | 70 | 2.0 | 10.0 | 0.00 | 0.00 | 0.00 | 75 | 1014.3 |
| 20260505235505 | 51 | 72 | 5.0 | 12.0 | 0.00 | 0.00 | 0.00 | 74 | 1014.2 |
| 20260505235012 | 51 | 67 | 3.0 | 12.0 | 0.00 | 0.00 | 0.00 | 75 | 1014.2 |
| 20260505234505 | 51 | 76 | 4.0 | 10.0 | 0.00 | 0.00 | 0.00 | 74 | 1014.2 |
| 20260505234012 | 51 | 36 | 1.0 | 8.0 | 0.00 | 0.00 | 0.00 | 74 | 1014.2 |
| 20260505233505 | 51 | 60 | 3.0 | 8.0 | 0.00 | 0.00 | 0.00 | 74 | 1014.2 |
| 20260505233012 | 51 | 69 | 2.0 | 6.0 | 0.00 | 0.00 | 0.00 | 74 | 1014.2 |
| 20260505232504 | 51 | 63 | 3.0 | 10.0 | 0.00 | 0.00 | 0.00 | 74 | 1014.3 |
| 20260505231505 | 51 | 60 | 5.0 | 7.0 | 0.00 | 0.00 | 0.00 | 74 | 1014.3 |
| 20260505231012 | 52 | 62 | 3.0 | 8.0 | 0.00 | 0.00 | 0.00 | 74 | 1014.3 |
| 20260505230005 | 52 | 62 | 4.0 | 12.0 | 0.00 | 0.00 | 0.00 | 73 | 1014.3 |
| 20260505225505 | 52 | 54 | 3.0 | 8.0 | 0.00 | 0.00 | 0.00 | 72 | 1014.3 |
| 20260505225012 | 52 | 98 | 4.0 | 10.0 | 0.00 | 0.00 | 0.00 | 72 | 1014.3 |
| 20260505224505 | 52 | 51 | 2.0 | 5.0 | 0.00 | 0.00 | 0.00 | 72 | 1014.3 |
| 20260505224012 | 52 | 68 | 3.0 | 13.0 | 0.00 | 0.00 | 0.00 | 72 | 1014.3 |
| 20260505223505 | 52 | 93 | 4.0 | 15.0 | 0.00 | 0.00 | 0.00 | 72 | 1014.3 |
| 20260505223012 | 52 | 54 | 3.0 | 9.0 | 0.00 | 0.00 | 0.00 | 71 | 1014.3 |
| 20260505221012 | 53 | 39 | 2.0 | 5.0 | 0.00 | 0.00 | 0.00 | 79 | 1014.4 |
| 20260505220505 | 53 | 89 | 2.0 | 8.0 | 0.00 | 0.00 | 0.00 | 78 | 1014.3 |
| 20260505215505 | 53 | 104 | 1.0 | 6.0 | 0.00 | 0.00 | 0.00 | 78 | 1014.3 |
| 20260505215012 | 53 | 84 | 3.0 | 6.0 | 0.00 | 0.00 | 0.00 | 77 | 1014.2 |
| 20260505214504 | 53 | 102 | 1.0 | 8.0 | 0.00 | 0.00 | 0.00 | 77 | 1014.2 |
| 20260505214011 | 53 | 124 | 5.0 | 9.0 | 0.00 | 0.00 | 0.00 | 76 | 1014.1 |
| 20260505213505 | 53 | 115 | 4.0 | 12.0 | 0.00 | 0.00 | 0.00 | 75 | 1014.1 |
| 20260505213011 | 53 | 106 | 5.0 | 12.0 | 0.00 | 0.00 | 0.00 | 75 | 1014.0 |
| 20260505212505 | 53 | 115 | 7.0 | 13.0 | 0.00 | 0.00 | 0.00 | 74 | 1013.9 |
| 20260505211505 | 54 | 96 | 9.0 | 16.0 | 0.00 | 0.00 | 0.00 | 74 | 1013.9 |
| 20260505211012 | 54 | 106 | 9.0 | 14.0 | 0.00 | 0.00 | 0.00 | 75 | 1013.9 |
| 20260505210505 | 54 | 106 | 6.0 | 17.0 | 0.00 | 0.00 | 0.00 | 75 | 1013.9 |
| 20260505205504 | 55 | 92 | 12.0 | 18.0 | 0.00 | 0.00 | 0.00 | 72 | 1013.9 |
| 20260505205012 | 55 | 90 | 6.0 | 16.0 | 0.00 | 0.00 | 0.00 | 70 | 1013.9 |
| 20260505204012 | 55 | 91 | 8.0 | 14.0 | 0.00 | 0.00 | 0.00 | 65 | 1013.8 |
| 20260505203011 | 56 | 98 | 4.0 | 10.0 | 0.00 | 0.00 | 0.00 | 66 | 1013.7 |
| 20260505202504 | 56 | 114 | 4.0 | 12.0 | 0.00 | 0.00 | 0.00 | 66 | 1013.6 |
| 20260505202012 | 56 | 99 | 4.0 | 12.0 | 0.00 | 0.00 | 0.00 | 67 | 1013.7 |
| 20260505201505 | 56 | 98 | 6.0 | 10.0 | 0.00 | 0.00 | 0.00 | 67 | 1013.6 |
| 20260505201012 | 56 | 101 | 4.0 | 7.0 | 0.00 | 0.00 | 0.00 | 68 | 1013.6 |
| 20260505200505 | 56 | 112 | 4.0 | 8.0 | 0.00 | 0.00 | 0.00 | 67 | 1013.5 |
| 20260505200005 | 56 | 89 | 3.0 | 7.0 | 0.00 | 0.00 | 0.00 | 67 | 1013.4 |
| 20260505195011 | 56 | 97 | 3.0 | 6.0 | 0.00 | 0.00 | 0.00 | 66 | 1013.3 |
| 20260505194505 | 57 | 113 | 3.0 | 7.0 | 0.00 | 0.00 | 0.00 | 66 | 1013.3 |
| 20260505194012 | 57 | 71 | 2.0 | 8.0 | 0.00 | 0.00 | 0.00 | 66 | 1013.2 |
| 20260505193505 | 57 | 99 | 4.0 | 10.0 | 0.00 | 0.00 | 0.00 | 65 | 1013.1 |
| 20260505193012 | 57 | 90 | 5.0 | 9.0 | 0.00 | 0.00 | 0.00 | 65 | 1013.0 |
| 20260505192505 | 57 | 109 | 4.0 | 10.0 | 0.00 | 0.00 | 0.00 | 65 | 1013.0 |
| 20260505192011 | 57 | 118 | 5.0 | 12.0 | 0.00 | 0.00 | 0.00 | 65 | 1013.0 |
| 20260505191504 | 57 | 92 | 6.0 | 14.0 | 0.00 | 0.00 | 0.00 | 64 | 1013.0 |
| 20260505190005 | 58 | 97 | 0.0 | 2.0 | 0.00 | 0.00 | 0.00 | 64 | 1012.9 |
| 20260505185011 | 58 | 132 | 2.0 | 3.0 | 0.00 | 0.00 | 0.00 | 62 | 1012.8 |
| 20260505184505 | 58 | 104 | 2.0 | 3.0 | 0.00 | 0.00 | 0.00 | 62 | 1012.8 |
| 20260505184011 | 58 | 122 | 2.0 | 3.0 | 0.00 | 0.00 | 0.00 | 62 | 1012.7 |
| 20260505183505 | 58 | 134 | 2.0 | 3.0 | 0.00 | 0.00 | 0.00 | 62 | 1012.7 |
| 20260505183011 | 58 | 104 | 2.0 | 3.0 | 0.00 | 0.00 | 0.00 | 62 | 1012.6 |
| 20260505182504 | 58 | 111 | 0.0 | 3.0 | 0.00 | 0.00 | 0.00 | 62 | 1012.6 |
| 20260505182012 | 59 | 103 | 3.0 | 6.0 | 0.00 | 0.00 | 0.00 | 60 | 1012.6 |
| 20260505181505 | 59 | 171 | 2.0 | 3.0 | 0.00 | 0.00 | 0.00 | 60 | 1012.6 |
| 20260505181011 | 59 | 151 | 2.0 | 5.0 | 0.00 | 0.00 | 0.00 | 60 | 1012.6 |
| 20260505180004 | 59 | 94 | 2.0 | 3.0 | 0.00 | 0.00 | 0.00 | 60 | 1012.7 |
| 20260505175505 | 59 | 121 | 2.0 | 3.0 | 0.00 | 0.00 | 0.00 | 60 | 1012.7 |
| 20260505174504 | 59 | 152 | 3.0 | 6.0 | 0.00 | 0.00 | 0.00 | 59 | 1012.7 |
| 20260505174011 | 59 | 131 | 3.0 | 5.0 | 0.00 | 0.00 | 0.00 | 58 | 1012.6 |
| 20260505173011 | 59 | 121 | 3.0 | 7.0 | 0.00 | 0.00 | 0.00 | 57 | 1012.6 |
| 20260505172507 | 59 | 126 | 3.0 | 6.0 | 0.00 | 0.00 | 0.00 | 57 | 1012.6 |
| 20260505172011 | 60 | 160 | 1.0 | 6.0 | 0.00 | 0.00 | 0.00 | 56 | 1012.7 |
| 20260505171505 | 60 | 142 | 5.0 | 9.0 | 0.00 | 0.00 | 0.00 | 56 | 1012.6 |
| 20260505171011 | 60 | 134 | 4.0 | 8.0 | 0.00 | 0.00 | 0.00 | 56 | 1012.6 |
| 20260505170505 | 60 | 133 | 3.0 | 8.0 | 0.00 | 0.00 | 0.00 | 56 | 1012.7 |
| 20260505170004 | 60 | 137 | 3.0 | 9.0 | 0.00 | 0.00 | 0.00 | 55 | 1012.7 |
| 20260505165504 | 60 | 129 | 4.0 | 7.0 | 0.00 | 0.00 | 0.00 | 55 | 1012.7 |
| 20260505165011 | 60 | 135 | 5.0 | 9.0 | 0.00 | 0.00 | 0.00 | 55 | 1012.7 |
| 20260505164011 | 60 | 142 | 3.0 | 10.0 | 0.00 | 0.00 | 0.00 | 54 | 1012.7 |
| 20260505163505 | 60 | 187 | 5.0 | 12.0 | 0.00 | 0.00 | 0.00 | 54 | 1012.6 |
| 20260505163012 | 60 | 154 | 3.0 | 8.0 | 0.00 | 0.00 | 0.00 | 54 | 1012.7 |
| 20260505162504 | 61 | 158 | 3.0 | 7.0 | 0.00 | 0.00 | 0.00 | 54 | 1012.7 |
| 20260505162011 | 61 | 134 | 4.0 | 8.0 | 0.00 | 0.00 | 0.00 | 53 | 1012.6 |
| 20260505161505 | 61 | 103 | 6.0 | 10.0 | 0.00 | 0.00 | 0.00 | 52 | 1012.6 |
| 20260505161012 | 61 | 106 | 5.0 | 9.0 | 0.00 | 0.00 | 0.00 | 52 | 1012.6 |
| 20260505160505 | 61 | 103 | 3.0 | 7.0 | 0.00 | 0.00 | 0.00 | 53 | 1012.6 |
| 20260505152504 | 62 | 87 | 2.0 | 3.0 | 0.00 | 0.00 | 0.00 | 53 | 1012.7 |
| 20260505152011 | 62 | 107 | 2.0 | 6.0 | 0.00 | 0.00 | 0.00 | 52 | 1012.7 |
| 20260505151504 | 62 | 105 | 2.0 | 3.0 | 0.00 | 0.00 | 0.00 | 52 | 1012.7 |
| 20260505151011 | 62 | 136 | 4.0 | 7.0 | 0.00 | 0.00 | 0.00 | 51 | 1012.8 |
| 20260505150504 | 62 | 130 | 1.0 | 3.0 | 0.00 | 0.00 | 0.00 | 51 | 1012.8 |
| 20260505140504 | 63 | 24 | 1.0 | 3.0 | 0.00 | 0.00 | 0.00 | 50 | 1013.0 |
| 20260505124506 | 62 | 116 | 2.0 | 3.0 | 0.00 | 0.00 | 0.00 | 53 | 1013.4 |
| 20260505124013 | 62 | 86 | 5.0 | 9.0 | 0.00 | 0.00 | 0.00 | 52 | 1013.4 |
| 20260505123509 | 62 | 81 | 2.0 | 5.0 | 0.00 | 0.00 | 0.00 | 54 | 1013.4 |
| 20260505123012 | 62 | 138 | 2.0 | 5.0 | 0.00 | 0.00 | 0.00 | 54 | 1013.4 |
| 20260505122506 | 62 | 54 | 3.0 | 9.0 | 0.00 | 0.00 | 0.00 | 54 | 1013.4 |
| 20260505122013 | 63 | 89 | 5.0 | 12.0 | 0.00 | 0.00 | 0.00 | 52 | 1013.3 |
| 20260505121505 | 63 | 99 | 4.0 | 9.0 | 0.00 | 0.00 | 0.00 | 52 | 1013.3 |
| 20260505120506 | 63 | 63 | 5.0 | 12.0 | 0.00 | 0.00 | 0.00 | 53 | 1013.3 |
| 20260505120006 | 63 | 106 | 3.0 | 8.0 | 0.00 | 0.00 | 0.00 | 51 | 1013.4 |
| 20260505115506 | 62 | 132 | 2.0 | 9.0 | 0.00 | 0.00 | 0.00 | 53 | 1013.5 |
| 20260505115013 | 61 | 88 | 8.0 | 12.0 | 0.00 | 0.00 | 0.00 | 52 | 1013.5 |
| 20260505114505 | 62 | 124 | 3.0 | 7.0 | 0.00 | 0.00 | 0.00 | 54 | 1013.5 |
| 20260505114012 | 61 | 74 | 4.0 | 10.0 | 0.00 | 0.00 | 0.00 | 57 | 1013.5 |
| 20260505113506 | 61 | 60 | 3.0 | 10.0 | 0.00 | 0.00 | 0.00 | 57 | 1013.5 |
| 20260505113013 | 61 | 112 | 7.0 | 12.0 | 0.00 | 0.00 | 0.00 | 56 | 1013.5 |
| 20260505112506 | 61 | 82 | 2.0 | 7.0 | 0.00 | 0.00 | 0.00 | 57 | 1013.5 |
| 20260505111506 | 61 | 131 | 6.0 | 12.0 | 0.00 | 0.00 | 0.00 | 56 | 1013.7 |
| 20260505111012 | 61 | 54 | 2.0 | 6.0 | 0.00 | 0.00 | 0.00 | 58 | 1013.6 |
| 20260505110506 | 61 | 33 | 3.0 | 12.0 | 0.00 | 0.00 | 0.00 | 58 | 1013.6 |
| 20260505102013 | 60 | 83 | 5.0 | 12.0 | 0.00 | 0.00 | 0.00 | 60 | 1014.1 |
| 20260505101506 | 60 | 93 | 3.0 | 9.0 | 0.00 | 0.00 | 0.00 | 63 | 1014.1 |
| 20260505101013 | 59 | 94 | 1.0 | 5.0 | 0.00 | 0.00 | 0.00 | 63 | 1014.1 |
| 20260505100506 | 59 | 78 | 3.0 | 8.0 | 0.00 | 0.00 | 0.00 | 63 | 1014.1 |
| 20260505100006 | 59 | 41 | 3.0 | 9.0 | 0.00 | 0.00 | 0.00 | 63 | 1014.1 |
| 20260505095505 | 58 | 68 | 5.0 | 7.0 | 0.00 | 0.00 | 0.00 | 63 | 1014.1 |
| 20260505095012 | 58 | 54 | 3.0 | 9.0 | 0.00 | 0.00 | 0.00 | 63 | 1014.2 |
| 20260505094505 | 58 | 51 | 4.0 | 9.0 | 0.00 | 0.00 | 0.00 | 64 | 1014.2 |
| 20260505093506 | 58 | 50 | 2.0 | 7.0 | 0.00 | 0.00 | 0.00 | 68 | 1014.2 |
| 20260505093012 | 57 | 59 | 4.0 | 8.0 | 0.00 | 0.00 | 0.00 | 70 | 1014.2 |
| 20260505092506 | 57 | 38 | 3.0 | 6.0 | 0.00 | 0.00 | 0.00 | 71 | 1014.2 |
| 20260505092012 | 57 | 37 | 3.0 | 6.0 | 0.00 | 0.00 | 0.00 | 72 | 1014.2 |
| 20260505091505 | 56 | 111 | 3.0 | 8.0 | 0.00 | 0.00 | 0.00 | 73 | 1014.3 |
| 20260505091013 | 56 | 88 | 3.0 | 9.0 | 0.00 | 0.00 | 0.00 | 75 | 1014.4 |
| 20260505090506 | 55 | 59 | 3.0 | 6.0 | 0.00 | 0.00 | 0.00 | 75 | 1014.4 |
| 20260505090005 | 55 | 47 | 3.0 | 6.0 | 0.00 | 0.00 | 0.00 | 75 | 1014.4 |
| 20260505085505 | 55 | 64 | 2.0 | 6.0 | 0.00 | 0.00 | 0.00 | 77 | 1014.4 |
| 20260505085013 | 55 | 34 | 2.0 | 5.0 | 0.00 | 0.00 | 0.00 | 77 | 1014.5 |
| 20260505084505 | 54 | 25 | 3.0 | 7.0 | 0.00 | 0.00 | 0.00 | 77 | 1014.5 |